Location: Briis
(48.6240°N, 2.1211°E)
Time: 17:13:28
(UTC+00:00)

COSMOS 2251 DEB - Visible Passes

Search period start: 16 April 2021 00:00
Search period end: 26 April 2021 00:00
Orbit: 637 x 743 km, 74.0° (Epoch: 15 April)

Date Brightness Start Highest point End Pass type
(mag) Time Alt. Az. Time Alt. Az. Time Alt. Az.
17 Apr ? 03:47:27 10° SE 03:50:43 19° E 03:53:57 10° NE visible
19 Apr ? 03:27:01 10° SSE 03:30:23 20° E 03:33:44 10° NE visible
20 Apr ? 04:05:33 10° S 04:10:03 59° ESE 04:14:32 10° NNE visible
21 Apr ? 03:06:35 10° SSE 03:10:03 22° E 03:13:29 10° NE visible
22 Apr ? 03:45:14 10° S 03:49:43 63° ESE 03:54:14 10° NNE visible
23 Apr ? 02:46:09 10° SSE 02:49:42 23° E 02:53:15 10° NE visible
24 Apr ? 03:24:53 10° S 03:29:24 67° ESE 03:33:55 10° NNE visible
25 Apr ? 02:25:49 10° SSE 02:29:21 24° E 02:32:59 10° NE visible
25 Apr ? 04:05:09 10° SW 04:09:29 43° WNW 04:13:50 10° NNE visible
